Retour au catalogue

COSMOS 970 DEB

ActifLEO
NORAD 10880·DEBRIS·🇷🇺 Russia

Lancé Dec 21, 1977 depuis Baikonur Cosmodrome

Loading…

Prochains Passages (prochaines 24 heures)

TLE

FraisSource: Space-Track

Époque: Sep 14, 2026, 06:46 UTC

1 10880U 77121AB  26257.28219659  .00000169  00000-0  28790-3 0  9994
2 10880  65.8399 185.9099 0109949 180.5446 342.8898 13.66235022421649

Suivez COSMOS 970 DEB en temps réel avec AllMySat

Download on the App Store